Wind_Speed
14 14 14 13 13 12 10 9 9 8 7 6 5 6 5 5 4 4 3 2 2 2 1 1 1 2 3 3 4 5 5 6 6 6 7 7 7 6 6 6 6 5 6
12 13 14 13 12 12 10 9 9 7 6 6 5 5 5 4 3 3 3 3 2 2 1 1 0 1 2 3 4 4 5 6 6 7 8 8 7 6 5 5 5 6 7
11 12 12 13 12 11 11 9 8 7 6 5 5 5 4 4 3 3 3 3 3 3 2 1 1 1 1 3 4 4 4 5 6 7 7 7 7 7 6 6 7 7 8
11 11 11 12 11 11 10 9 8 6 5 5 5 5 5 4 3 3 2 3 3 3 3 2 2 2 2 3 4 5 5 6 6 7 7 8 8 7 7 8 8 8 9
11 11 11 12 12 12 10 9 8 6 6 5 5 6 5 4 4 3 3 3 3 3 3 3 2 2 2 3 4 6 6 7 7 8 8 8 8 8 8 9 9 9 10
12 12 12 12 12 12 11 10 7 6 6 6 6 5 5 5 4 4 4 4 4 4 4 4 4 4 4 5 5 6 7 8 8 8 8 9 9 10 9 10 10 11 11
12 13 13 13 13 13 11 10 8 6 6 6 6 6 6 5 4 4 4 4 5 5 5 5 5 5 5 5 6 7 8 8 9 9 9 9 10 10 11 11 11 12 12
12 13 14 14 14 12 11 10 9 7 7 6 6 6 6 6 5 5 4 5 5 6 7 6 6 6 6 7 7 7 7 8 9 9 10 10 12 12 11 12 12 13 13
12 13 13 14 13 13 12 11 10 8 7 7 6 6 6 6 6 6 6 6 7 7 7 7 7 7 8 9 9 8 8 9 10 10 11 11 12 12 12 13 13 14 14
12 13 14 14 13 13 12 12 11 10 8 8 8 8 7 8 8 8 8 8 9 9 9 10 10 10 10 9 9 9 9 9 10 10 11 12 13 13 13 14 15 16 16
13 14 15 15 14 14 13 14 12 10 9 9 9 9 9 9 10 10 10 10 10 11 11 11 11 11 11 12 12 11 11 11 11 11 11 12 13 14 14 15 16 16 16
15 16 16 16 15 15 14 14 14 13 12 11 11 12 11 12 12 12 13 13 13 13 13 14 13 13 14 14 14 14 14 13 13 13 13 14 15 15 15 16 16 17 17
17 18 18 18 17 17 16 16 16 16 15 14 14 14 14 14 14 15 15 15 15 15 15 15 15 15 15 15 16 16 15 15 15 16 16 17 17 17 17 18 18 19 19
18 19 20 19 19 19 18 18 18 17 16 16 15 16 16 16 16 17 16 16 16 17 17 17 17 17 17 17 17 17 16 17 17 18 19 19 19 20 20 20 20 20 21
20 20 21 21 20 20 20 20 18 18 18 17 17 17 17 18 18 18 17 17 17 18 19 19 19 19 19 19 19 18 18 19 20 20 21 21 21 22 22 22 22 23 23
21 21 21 21 21 20 21 21 20 20 20 19 19 20 20 19 19 19 18 19 19 20 21 21 21 21 21 20 20 20 21 21 22 23 23 23 23 23 24 24 24 25 25
23 22 21 21 22 22 21 21 22 22 21 20 20 21 21 20 20 20 20 20 21 22 22 22 22 22 22 22 23 23 22 23 23 24 25 25 25 25 26 27 27 27 27
24 23 22 21 21 22 22 22 23 23 23 23 22 22 22 22 21 21 21 22 23 22 22 22 23 23 23 24 25 25 24 25 25 25 26 26 27 28 28 28 28 28 29
24 23 23 23 23 23 23 23 24 25 25 24 24 23 22 22 22 22 23 23 23 23 23 23 24 24 25 25 26 25 25 26 26 26 26 27 28 29 29 29 28 29 30
24 24 24 24 24 24 24 24 25 25 25 25 25 24 24 24 24 25 25 25 25 24 24 24 24 25 25 26 26 26 26 27 27 27 27 27 28 29 29 29 30 30 31
25 25 25 25 25 24 24 24 25 25 26 26 25 25 25 25 25 25 25 25 25 25 25 25 24 24 25 26 25 25 26 27 28 28 28 28 28 29 30 30 31 31 32
24 24 25 26 26 25 25 25 25 25 26 26 26 27 26 26 26 25 26 26 26 26 25 24 24 24 25 25 25 25 26 27 27 28 28 28 29 29 30 31 32 32 33
25 26 26 26 27 27 26 26 26 26 26 26 27 28 26 26 27 27 27 26 26 26 25 25 25 25 25 26 26 27 27 28 28 29 30 30 31 31 31 31 32 33 33
26 27 27 27 26 27 27 27 26 26 26 26 27 26 26 26 27 27 25 24 24 24 24 25 25 25 25 26 27 27 28 28 28 29 29 30 31 31 31 32 32 32 33
27 27 27 27 27 27 27 27 27 27 27 27 27 27 27 26 26 26 25 24 23 23 24 24 24 25 26 26 26 27 28 28 29 29 29 29 30 30 31 32 32 33 33
27 28 27 27 27 27 28 28 28 28 28 27 27 27 27 27 25 25 25 24 24 25 25 25 25 25 26 26 27 27 28 29 29 29 28 29 30 31 32 32 33 33 34
Wind_Direction
19 19 19 20 19 19 21 21 21 23 29 35 46 49 49 53 57 61 75 76 56 42 105 141 165 195 199 203 213 221 226 235 238 235 239 244 251 265 273 272 269 265 268
13 16 16 16 16 15 15 15 16 18 21 24 36 42 42 43 41 43 43 41 35 14 23 42 272 229 226 228 229 234 237 241 239 238 244 253 259 266 270 267 273 269 269
6 12 11 12 12 13 13 12 12 12 16 18 17 22 24 23 21 23 23 18 17 7 10 345 323 299 247 237 242 241 246 248 245 244 245 248 254 260 264 269 274 273 273
2 4 7 8 8 6 7 4 360 358 356 358 1 360 0 1 359 359 357 350 354 1 354 335 292 270 266 258 252 253 254 255 256 253 251 251 251 255 260 267 271 272 272
352 356 359 2 2 2 0 359 353 345 339 338 348 351 342 337 334 331 330 325 331 340 338 324 315 270 266 266 257 257 255 258 260 258 256 252 253 255 258 262 270 275 277
347 351 353 353 356 356 353 352 345 337 330 332 333 332 332 326 318 317 313 310 311 317 322 323 312 300 284 271 266 268 262 261 263 259 256 255 260 262 265 266 271 275 278
338 343 344 344 344 345 344 345 341 332 327 328 328 322 316 314 316 310 306 305 306 305 303 307 309 304 297 291 279 274 275 271 266 259 259 262 266 270 268 270 273 274 277
327 328 334 335 336 338 337 335 333 327 320 320 318 317 315 307 299 302 301 300 302 302 296 296 294 290 289 291 289 285 282 276 274 268 265 267 271 273 272 273 274 275 277
321 321 327 330 330 334 332 327 325 320 314 312 310 308 309 307 298 294 292 291 294 302 303 300 298 294 286 284 286 288 285 284 280 276 274 273 274 275 275 275 275 278 280
312 318 320 323 321 326 326 324 316 314 310 303 301 302 302 300 296 293 291 289 289 294 297 295 290 288 287 287 289 293 295 292 286 282 278 277 279 279 279 280 280 281 281
299 309 315 315 314 314 316 318 311 306 304 297 296 297 296 292 292 293 291 287 287 287 288 289 288 286 289 292 295 288 288 288 286 286 286 288 286 284 283 282 283 284 284
293 300 306 306 306 305 306 309 306 302 303 296 297 295 292 291 292 294 292 290 287 285 288 287 289 289 290 292 293 290 289 283 280 281 283 285 286 286 285 285 285 286 287
291 296 300 302 302 301 300 301 301 299 297 298 298 296 293 292 289 291 290 289 289 287 287 286 287 288 287 288 289 288 285 281 280 279 281 281 283 284 284 285 286 285 286
288 290 294 296 298 298 297 298 298 297 294 294 296 295 291 288 287 289 288 285 285 286 285 286 286 286 284 284 285 285 285 283 283 283 282 283 282 283 284 285 285 284 284
284 285 290 295 296 296 294 294 292 293 292 292 293 291 288 287 287 287 285 283 283 284 284 286 286 285 282 282 282 282 282 283 284 284 283 283 283 284 284 285 284 284 283
283 284 288 292 293 293 293 292 292 290 289 290 290 290 288 287 286 285 283 283 283 283 283 285 286 284 283 282 282 281 281 282 282 282 283 283 283 284 285 284 284 284 284
282 284 287 288 289 290 289 290 290 289 287 286 285 287 287 287 286 284 284 285 284 283 281 284 284 283 283 283 281 280 279 280 283 283 282 282 283 283 284 285 285 286 285
280 285 287 286 287 289 288 289 287 288 288 289 288 287 287 286 285 285 286 286 285 282 281 283 284 283 283 282 281 279 279 280 282 282 282 282 282 283 285 285 284 284 285
278 281 285 287 287 289 288 288 288 288 288 287 287 287 288 285 284 284 285 286 285 283 280 281 282 281 280 280 280 279 280 281 281 282 284 284 283 283 283 284 284 284 284
279 280 282 284 286 287 287 287 288 289 289 288 287 286 287 284 283 283 283 285 286 285 283 282 280 280 282 283 281 280 281 281 281 283 283 283 283 283 282 282 284 284 285
279 281 284 285 286 286 287 286 287 289 289 290 287 285 286 286 282 281 281 282 283 284 283 283 282 283 283 283 282 283 283 282 282 284 284 284 284 284 283 284 285 286 286
280 283 285 287 286 285 285 286 287 288 289 288 289 289 287 287 284 282 283 283 281 282 282 281 281 281 282 283 283 284 286 285 283 283 285 286 286 286 286 287 288 288 288
282 283 284 284 284 283 284 286 286 286 288 289 290 289 287 287 285 285 284 282 282 280 279 280 282 283 284 285 285 284 285 286 285 285 284 285 286 288 289 289 289 290 289
282 283 282 282 282 283 283 285 285 285 286 287 289 289 287 286 284 284 283 283 283 282 282 283 283 284 285 285 285 284 284 285 286 287 286 286 286 287 289 289 290 291 291
282 282 281 280 282 282 282 282 282 283 284 284 286 287 288 288 287 285 286 286 285 284 284 284 284 283 284 286 286 285 285 285 286 288 288 289 289 290 290 290 290 291 291
281 281 280 280 281 281 281 281 281 283 283 283 285 286 287 287 285 285 285 287 288 288 287 287 287 286 286 286 288 288 289 288 288 289 288 289 291 292 292 293 293 292 292
Height
5910 5907 5905 5903 5901 5899 5897 5895 5893 5891 5889 5888 5888 5887 5886 5886 5885 5885 5884 5884 5884 5884 5884 5883 5884 5884 5885 5885 5886 5886 5887 5887 5888 5888 5888 5888 5888 5888 5887 5887 5887 5887 5886
5910 5908 5906 5903 5901 5899 5897 5895 5893 5891 5890 5889 5888 5888 5887 5886 5886 5885 5885 5885 5884 5884 5883 5883 5884 5884 5884 5884 5885 5885 5885 5886 5886 5887 5887 5887 5887 5886 5886 5886 5885 5885 5885
5910 5908 5906 5904 5901 5899 5897 5895 5893 5891 5890 5890 5889 5888 5887 5887 5886 5886 5886 5885 5885 5884 5884 5883 5883 5883 5883 5884 5884 5884 5884 5884 5885 5885 5885 5885 5885 5885 5885 5884 5884 5883 5883
5910 5908 5906 5903 5901 5898 5896 5894 5893 5891 5890 5889 5889 5888 5888 5887 5887 5886 5886 5885 5885 5884 5883 5883 5882 5882 5882 5882 5882 5883 5883 5883 5883 5883 5883 5883 5883 5882 5882 5882 5881 5881 5880
5909 5907 5904 5902 5900 5898 5896 5894 5892 5891 5889 5888 5888 5888 5887 5887 5886 5886 5885 5885 5884 5884 5883 5882 5882 5881 5881 5881 5881 5881 5881 5881 5881 5880 5880 5880 5880 5880 5879 5879 5879 5878 5877
5907 5905 5903 5901 5899 5897 5895 5893 5891 5890 5889 5888 5887 5887 5886 5886 5885 5885 5884 5884 5883 5883 5882 5881 5880 5880 5879 5879 5879 5879 5878 5878 5878 5878 5877 5877 5877 5877 5876 5876 5876 5875 5875
5905 5904 5902 5900 5898 5895 5893 5891 5890 5888 5888 5887 5886 5886 5885 5884 5884 5883 5883 5882 5882 5881 5881 5880 5879 5879 5878 5877 5877 5877 5876 5875 5875 5875 5874 5874 5874 5873 5873 5873 5872 5872 5871
5904 5902 5901 5898 5896 5894 5892 5890 5888 5887 5886 5886 5885 5885 5884 5883 5882 5882 5881 5881 5880 5879 5879 5878 5878 5877 5876 5875 5875 5874 5873 5873 5872 5871 5871 5871 5870 5870 5869 5869 5868 5868 5867
5902 5900 5899 5897 5895 5893 5891 5889 5887 5886 5885 5884 5884 5883 5882 5881 5880 5880 5879 5878 5878 5877 5877 5876 5875 5874 5874 5873 5872 5871 5870 5870 5869 5868 5868 5867 5866 5866 5865 5865 5864 5864 5863
5898 5897 5896 5894 5893 5891 5889 5887 5886 5884 5883 5883 5882 5881 5880 5880 5878 5877 5877 5876 5875 5874 5874 5873 5872 5871 5870 5869 5869 5868 5868 5867 5866 5865 5864 5864 5863 5862 5861 5860 5859 5858 5858
5894 5893 5893 5892 5890 5889 5887 5885 5883 5882 5881 5880 5880 5879 5878 5877 5876 5875 5874 5873 5872 5871 5870 5870 5869 5868 5867 5866 5865 5865 5864 5863 5862 5861 5860 5859 5859 5858 5856 5855 5854 5853 5852
5891 5890 5889 5888 5887 5886 5884 5883 5881 5878 5877 5876 5876 5875 5874 5873 5872 5871 5870 5869 5868 5868 5867 5866 5865 5864 5863 5862 5861 5861 5859 5859 5858 5857 5856 5855 5854 5853 5852 5850 5849 5848 5846
5887 5886 5885 5884 5883 5882 5881 5879 5878 5876 5874 5873 5872 5871 5870 5869 5869 5867 5866 5865 5865 5863 5862 5861 5861 5860 5859 5858 5857 5856 5855 5854 5853 5853 5851 5850 5849 5848 5846 5845 5844 5842 5840
5883 5882 5881 5880 5879 5878 5876 5875 5873 5872 5870 5869 5868 5867 5866 5865 5864 5863 5861 5861 5860 5859 5858 5856 5856 5855 5854 5853 5852 5851 5850 5849 5848 5847 5846 5844 5843 5842 5840 5839 5837 5836 5834
5878 5877 5876 5874 5873 5872 5871 5870 5869 5867 5866 5864 5863 5862 5861 5859 5858 5857 5856 5855 5854 5853 5852 5851 5850 5849 5848 5847 5846 5845 5844 5843 5842 5841 5840 5839 5837 5836 5834 5832 5831 5829 5827
5873 5872 5870 5869 5868 5866 5865 5864 5863 5862 5861 5859 5858 5856 5855 5854 5853 5852 5851 5849 5848 5847 5846 5845 5844 5843 5842 5841 5840 5839 5838 5837 5836 5835 5833 5832 5830 5828 5827 5825 5823 5821 5819
5868 5867 5865 5864 5863 5862 5860 5858 5857 5856 5855 5853 5852 5851 5849 5848 5847 5846 5845 5843 5842 5841 5840 5838 5837 5836 5836 5834 5833 5832 5831 5830 5829 5827 5826 5824 5823 5821 5819 5817 5815 5813 5811
5862 5861 5860 5859 5857 5856 5855 5853 5851 5850 5849 5847 5846 5845 5843 5842 5841 5839 5838 5837 5836 5834 5833 5832 5831 5829 5828 5827 5825 5824 5823 5822 5821 5819 5818 5816 5814 5812 5811 5809 5807 5805 5802
5855 5854 5854 5853 5852 5850 5848 5847 5845 5843 5842 5841 5839 5838 5836 5835 5834 5832 5831 5830 5828 5827 5826 5824 5823 5822 5820 5819 5817 5816 5814 5813 5812 5811 5809 5807 5806 5804 5802 5800 5798 5796 5793
5849 5848 5847 5846 5845 5843 5841 5840 5838 5837 5835 5833 5831 5830 5829 5827 5826 5825 5823 5822 5820 5819 5817 5816 5814 5813 5812 5811 5809 5807 5806 5804 5803 5802 5800 5798 5796 5794 5792 5791 5789 5787 5784
5841 5840 5839 5838 5837 5836 5834 5833 5831 5829 5827 5825 5823 5822 5821 5819 5818 5817 5815 5814 5812 5811 5809 5808 5807 5805 5804 5803 5801 5799 5797 5795 5794 5792 5791 5789 5787 5785 5783 5781 5779 5777 5774
5833 5832 5832 5831 5829 5828 5827 5826 5824 5823 5820 5818 5816 5815 5813 5812 5810 5809 5807 5806 5804 5802 5801 5800 5799 5797 5796 5794 5793 5791 5789 5787 5785 5784 5782 5780 5777 5775 5773 5771 5769 5767 5764
5826 5825 5824 5823 5822 5821 5820 5818 5817 5815 5813 5811 5809 5807 5805 5804 5802 5800 5799 5798 5796 5795 5793 5792 5791 5789 5788 5786 5784 5783 5781 5779 5777 5775 5773 5770 5768 5766 5764 5761 5759 5756 5753
5818 5817 5816 5815 5814 5813 5812 5810 5809 5807 5805 5804 5802 5799 5798 5796 5794 5792 5791 5790 5788 5787 5785 5784 5783 5781 5779 5778 5776 5774 5772 5770 5768 5765 5763 5761 5759 5756 5754 5751 5748 5745 5743
5810 5809 5808 5807 5806 5805 5803 5802 5800 5799 5797 5796 5794 5792 5791 5789 5787 5785 5784 5782 5781 5779 5778 5776 5775 5773 5771 5770 5768 5765 5764 5761 5759 5757 5754 5752 5749 5747 5744 5741 5738 5735 5733
5801 5800 5799 5798 5797 5796 5795 5794 5792 5790 5789 5787 5786 5784 5783 5781 5780 5778 5776 5774 5773 5772 5770 5768 5767 5765 5763 5761 5759 5757 5755 5752 5750 5747 5745 5742 5740 5737 5735 5731 5728 5725 5722